www.pogodaiklimat.ru

Погода и климат >> Архив погоды >> Доминиканская Республика >> Puerto Plata


ПОГОДА в Puerto Plata

  • Прогноз погоды в Puerto Plata
  • Монитор погоды в Puerto Plata
  • Климат города

АРХИВ ПОГОДЫ в Puerto Plata

Время (UTC), дата Ветер
(напр.,м/с)
 
Видим.   Явления Облачность Т
(С)
Тd
(С)
f
(%)
Тe
(С)
Тes
(С)
Комфортность P
(гПа)
Po
(гПа)
Тmin
(С)
Tmax
(С)
R
(мм)
R24
(мм)
S
(см)
21 10.10 В 5 16 км 9/5 540 м
[Cb cap Cs]
+28.5 +24.9 81 +41 +42 опасность
перегрева
1011.7 1012.0
03 11.10 штиль 0 16 км 8/4 480 м
[Cu Sc Cs]
+23.4 +23.1 98 +33 +33 очень
душно
1014.7 1015.0
06 11.10 штиль 0 16 км 8/4 450 м
[Cu Sc Cs]
+23.0 +22.7 98 +32 +32 очень
душно
1013.3 1013.0
09 11.10 штиль 0 16 км 8/3 450 м
[Cu med, cong Cs]
+22.7 +22.3 98 1013.0 1012.5
12 11.10 штиль 0 16 км 3/1 480 м
[Cu med, cong Ci sp]
+23.7 +22.7 94 +31 +33 очень
душно
1013.3 1013.0 +22.0 +31.8
15 11.10 В 3 16 км 3/1 660 м
[Cu med, cong Ci]
+30.4 +24.6 71 +43 +53 опасность
перегрева
1013.7 1014.0
18 11.10 СВ 6 16 км 4/3 840 м
[Cu med, cong Ci sp]
+30.4 +25.7 76 +45 +49 опасность
перегрева
1011.7 1012.0 +22.0 +32.7
00 12.10 СВ 2 16 км 3/3 600 м
[Cu med, cong Ci]
+26.7 +25.1 91 +38 +38 очень
душно
1012.5 1013.0 +22.0 +32.7
03 12.10 штиль 0 16 км 5/3 540 м
[Cu med, cong Ac trans]
+24.7 +24.0 96 +34 +34 очень
душно
1013.6 1014.0
06 12.10 штиль 0 16 км 5/1 540 м
[Cu med, cong Ci]
+24.4 +23.6 95 +33 +33 очень
душно
1012.5 1013.0 +22.0 +32.7
09 12.10 штиль 0 16 км 4/3 540 м
[Cu med, cong Ci]
+24.2 +23.4 95 +32 +32 очень
душно
1011.7 1012.0
12 12.10 штиль 0 16 км 6/1 540 м
[Cu med, cong Ci]
+24.0 +22.9 94 +32 +33 очень
душно
1012.7 1013.0 +22.5 +32.7
15 12.10 В 4 16 км 5/1 600 м
[Cu med, cong Ci]
+30.0 +23.6 69 +41 +49 опасность
перегрева
1013.7 1014.0
18 12.10 СВ 5 16 км 3/3 660 м
[Cu med, cong]
+30.5 +25.4 74 +44 +50 опасность
перегрева
1011.4 1011.0 +22.5 +33.0
21 12.10 В 5 16 км 3/3 660 м
[Cu med, cong]
+31.8 +25.2 68 +46 +47 опасность
перегрева
1010.7 1011.0
00 13.10 штиль 0 16 км 5/5 600 м
[Sc]
+27.2 +24.8 87 +39 +39 очень
душно
1011.9 1012.0 +22.5 +33.0
03 13.10 штиль 0 16 км 5/5 540 м
[Sc]
+26.0 +23.5 86 +35 +35 очень
душно
1012.9 1013.0
06 13.10 штиль 0 16 км 4/4 540 м
[Sc]
+25.1 +23.7 92 +34 +34 очень
душно
1012.1 1012.0 +22.5 +33.0
09 13.10 штиль 0 16 км 4/3 540 м
[Sc]
+24.8 +22.3 86 +32 +32 очень
душно
1012.3 1012.0
12 13.10 штиль 0 16 км 3/3 600 м
[Cu med, cong]
+23.6 +22.2 92 +31 +32 очень
душно
1012.9 1013.0 +33.0
15 13.10 СЗ 3 16 км 3/3 720 м
[Cu med, cong]
+28.2 +23.3 75 +38 +46 очень
душно
1013.3 1013.0
18 13.10 В 6 16 км 3/3 840 м
[Cu med, cong]
+33.5 +24.9 61 +47 +51 опасность
перегрева
1011.7 1012.0 +22.0 +34.8
21 13.10 В 8 16 км 3/3 720 м
[Cu med, cong]
+30.2 +25.5 76 +44 +45 опасность
перегрева
1010.9 1011.0
00 14.10 штиль 0 16 км зарница {гроза} 4/3 500 м
[Cb cap Ci ing]
+27.2 +24.9 87 +39 +39 очень
душно
1012.6 1013.0 +22.0 +34.8
03 14.10 штиль 0 16 км 3/3 480 м
[Cu med, cong]
+24.6 +23.5 94 +33 +33 очень
душно
1014.3 1014.0
06 14.10 штиль 0 16 км {гроза} 3/3 480 м
[Cu med, cong]
+24.2 +23.9 98 +33 +33 очень
душно
1013.7 1014.0 +22.0 +34.8
09 14.10 штиль 0 16 км 4/4 450 м
[Cu med, cong]
+23.2 +23.1 99 +32 +32 очень
душно
1012.3 1012.0
12 14.10 штиль 0 16 км 8/8 500 м
[Cu Sc]
+23.8 +22.4 92 +31 +31 очень
душно
1014.3 1014.0 +22.2 +34.8
18 14.10 СВ 5 16 км 5/4 840 м
[Cu med, cong Ci]
+31.8 +24.7 66 +45 +49 опасность
перегрева
1013.4 1013.0 +22.2 +32.7
21 14.10 ЮВ 5 16 км 4/4 660 м
[Cb cap]
+31.2 +24.9 69 +44 +45 опасность
перегрева
1012.3 1012.0
00 15.10 В 3 16 км 3/3 540 м
[Cu med, cong]
+26.6 +23.3 82 +36 +36 очень
душно
1014.0 1014.0 +22.2 +32.7
03 15.10 штиль 0 16 км 5/5 480 м
[Cu Sc]
+25.2 +23.8 92 +34 +34 очень
душно
1015.9 1016.0
06 15.10 штиль 0 16 км 5/5 480 м
[Cu Sc]
+23.4 +23.0 98 +33 +33 очень
душно
1014.0 1014.0 +22.2 +32.7
09 15.10 штиль 0 16 км 4/4 450 м
[Cu Sc]
+22.3 +22.0 98 +30 +30 очень
душно
1014.2 1014.0
12 15.10 штиль 0 16 км 3/3 480 м
[Cu med, cong]
+23.4 +21.7 90 +32 +33 очень
душно
1016.0 1016.0 +21.9 +32.7
15 15.10 В 6 16 км 6/6 660 м
[Cu med, cong]
+30.1 +25.5 76 +44 +46 опасность
перегрева
1016.6 1017.0
18 15.10 ЮВ 5 16 км 5/5 750 м
[Cu med, cong]
+31.2 +25.0 70 +45 +49 опасность
перегрева
1015.1 1015.0 +21.9 +32.0
21 15.10 В 5 16 км 5/1 600 м
[Cu med, cong Ac trans]
+30.2 +25.5 76 +44 +45 опасность
перегрева
1014.7 1015.0
00 16.10 штиль 0 16 км 5/1 540 м
[Cu med, cong Ac trans]
+27.0 +24.8 88 +39 +39 очень
душно
1016.0 1016.0 +21.9 +32.2
03 16.10 штиль 0 16 км {дождь} 4/3 540 м
[Cu med, cong Ac trans]
+25.8 +24.4 92 +36 +36 очень
душно
1016.9 1017.0 0.2
06 16.10 штиль 0 16 км {дождь} 3/3 480 м
[Cu med, cong]
+24.2 +23.6 96 +33 +33 очень
душно
1015.8 1016.0 +21.9 +32.2
09 16.10 штиль 0 16 км в посл. час дождь 6/6 480 м
[Cu med, cong]
+23.8 +23.5 98 +32 +32 очень
душно
1015.7 1016.0 0.4
12 16.10 штиль 0 8000 м слабый дождь 9/8 300 м
[Cb cap As op]
+23.4 +23.1 98 +33 +33 очень
душно
1017.3 1017.0 +23.0 +32.2 0.4
15 16.10 штиль 0 8000 м слабый дождь {гроза} 9/8 540 м
[Cb cap As op]
+23.8 +23.2 96 +32 +34 очень
душно
1018.2 1018.0 7
18 16.10 В 5 16 км {дождь} 9/4 540 м
[Cu med, cong As op]
+27.2 +24.8 87 +39 +40 очень
душно
1015.7 1016.0 +23.0 +28.8 0.4
21 16.10 В 5 16 км {дождь} 9/4 540 м
[Cu med, cong As op]
+27.2 +24.8 87 +39 +39 очень
душно
1015.7 1016.0 +23.0 +28.8 0.4
00 17.10 штиль 0 16 км {дождь} 9/4 540 м
[Cu med, cong As op Ci fib]
+25.2 +23.9 93 +35 +35 очень
душно
1015.3 1015.0 +23.0 +28.8 1
03 17.10 ЮВ 2 16 км {дождь} 9/4 500 м
[Cu med, cong As op Ci fib]
+24.4 +23.8 96 +33 +33 очень
душно
1016.5 1017.0 10
06 17.10 штиль 0 16 км 8/4 500 м
[Cu med, cong Ac trans Ci fib]
+24.0 +23.6 98 +33 +33 очень
душно
1014.6 1015.0 +23.0 +28.8
09 17.10 штиль 0 16 км в посл. час дождь 8/3 500 м
[Cu med, cong Ac As Ci fib]
+23.8 +23.4 98 +32 +32 очень
душно
1014.1 1014.0 4
12 17.10 В 2 16 км {дождь} 6/6 540 м
[Cu med, cong Ac trans]
+24.4 +23.4 94 +33 +33 очень
душно
1015.8 1016.0 +23.1 +28.8
15 17.10 СВ 5 16 км {дождь} 8/5 600 м
[Cu med, cong Ac trans]
+28.9 +24.9 79 +41 +44 опасность
перегрева
1016.7 1017.0 5

 

Местоположение метеостанции Puerto Plata (Доминиканская Республика): широта 19.75 долгота -70.55 высота над уровнем моря 5 м.

В архиве по умолчанию представлена погода в Puerto Plata за последнюю неделю. Архивные данные за месяц целиком и за предыдущие месяцы, начиная с января 2011 года, Вы можете получить, выбрав интересующий диапазон дат из раскрывающегося списка и нажав кнопку "Ввод!".


*Определитесь, кто Вы:
робот инопланетянин человек

Внимание! Время в таблицах - всемирное. Для получения местного времени необходимо прибавить поправку, которая в Puerto Plata равна -4 ч.

Смотрите также архив погоды в соседних городах и на ближайших метеорологических станциях:

Погода в Santiago (Доминиканская Республика) (37 км)
Погода в Sabana De La Mar (Доминиканская Республика) (145 км)
Погода в Santo Domingo (Доминиканская Республика) (163 км)
Погода в Las Americas (Доминиканская Республика) (174 км)
Погода в Barahona (Доминиканская Республика) (182 км)
Погода в La Romana Int Airport (Доминиканская Республика) (224 км)
Погода в Punta Cana (Доминиканская Республика) (265 км)
Погода в Punta de Maisi (Куба) (380 км)
Погода в Punta Lucrecia (Куба) (547 км)
Погода в Cabo Lurecia (Куба) (548 км)

Пояснения к столбцам:

Ветер - указаны скорость ветра в м/с - средняя за 10 мин, порывы в срок и между сроками (в фигурных скобках) и направление, откуда дует ветер: С - северный, СВ - северо-восточный, В - восточный, ЮВ - юго-восточный, Ю - южный, ЮЗ - юго-западный, З - западный, СЗ - северо-западный.
Видимость - горизонтальная дальность видимости в метрах или километрах. При видимости от 1 до 10 км при отсутствии осадков обычно наблюдается дымка, при ухудшении видимости до 1 км и менее - туман. В сухую погоду видимость может ухудшаться дымом, пылью или мглою.
Явления - указаны атмосферные явления, наблюдавшиеся в срок или в последний час перед сроком; фигурными скобками обозначены явления, наблюдавшиеся между сроками (за 1-3 часа до срока); квадратными скобками обозначены град или гололедные отложения с указанием их диаметра в мм.
Облачность - указаны через наклонную черту общая и нижняя облачность в баллах и высота нижней границы облаков в метрах; квадратными скобками обозначены формы облаков: Ci - перистые, Cs - перисто-слоистые, Cc - перисто-кучевые, Ac - высококучевые, As - высокослоистые, Sc - слоисто-кучевые, Ns - слоисто-дождевые, Cu - кучевые, Cb - кучево-дождевые. Подробнее классификацию облаков см. в Атласе облаков (PDF).
T - Температура воздуха - температура, измеренная на высоте 2 м над землей.
Td - Температура точки росы - температура, при понижении до которой содержащийся в воздухе водяной пар достигнет насыщения.
f - Относительная влажность воздуха - влажноcть воздуха, измеренная на высоте 2 м над землей.
Te - Эффективная температура - температура, которую ощущает одетый по сезону человек в тени. Характеристика душности погоды. При расчете учитывается влияние влажности воздуха и скорости ветра на теплоощущения человека.
Tes - Эффективная температура на солнце - температура, которую ощущает человек, с поправкой на солнечный нагрев. Характеристика знойности погоды. Зависит от высоты солнца над горизонтом, облачности и скорости ветра. Ночью, в пасмурную погоду, а также при ветре 12 м/с и более поправка равна нулю.
P - Атмосферное давление - приведенное к уровню моря атмосферное давление.
Po - Атмосферное давление - измеренное на уровне метеостанции атмосферное давление.
Tmin - Минимальная температура - минимум температуры воздуха на высоте 2 м над землей.
Tmax - Максимальная температура - максимум температуры воздуха на высоте 2 м над землей.
R - Количество осадков - Количество выпавших осадков за период времени, мм. При наведении курсора мыши на число - период времени, за который выпало указанное количество осадков.
R24 - Количество осадков - Количество выпавших осадков за 24 часа, мм.
S - Снежный покров - Высота снежного покрова, см. При наведении курсора мыши на число - состояние снежного покрова и степень покрытия местности в баллах.